This demonstration page uses our WeatherBlox Daily Observations layout. Learn more.

Left ArrowRight Arrow

Hourly Observations for May 8, 2017

Temp ( °F °C ) Dew Point ( °F °C ) Humidity (%) Winds ( mph kmh ) Pressure ( in mb ) Visibility ( mi km ) Precip ( " mm )
12:15 am 00:15 Partly Cloudy 48 9 39 4 71 71 WNW 7 11 29.91 1013 10 16 N/A
12:35 am 00:35 Clear 48 9 37 3 66 66 NW 6 9 29.91 1013 10 16 N/A
12:55 am 00:55 Partly Cloudy 46 8 39 4 76 76 W 3 6 29.94 1014 10 16 N/A
1:15 am 01:15 Partly Cloudy 46 8 37 3 71 71 N N/A 29.94 1014 10 16 N/A
1:35 am 01:35 Clear 45 7 37 3 76 76 W 3 6 29.94 1014 10 16 N/A
1:55 am 01:55 Clear 45 7 37 3 76 76 WNW 3 6 29.94 1014 10 16 N/A
2:15 am 02:15 Clear 45 7 39 4 81 81 N N/A 29.94 1014 10 16 N/A
2:35 am 02:35 Clear 43 6 37 3 81 81 WSW 3 6 29.94 1014 10 16 N/A
2:55 am 02:55 Partly Cloudy 45 7 37 3 76 76 N N/A 29.94 1014 10 16 N/A
3:15 am 03:15 Mostly Cloudy 43 6 37 3 81 81 N N/A 29.94 1014 10 16 N/A
3:35 am 03:35 Partly Cloudy 41 5 37 3 87 87 WNW 7 11 29.97 1015 10 16 N/A
3:55 am 03:55 Partly Cloudy 43 6 37 3 81 81 WNW 6 9 29.97 1015 10 16 N/A
4:15 am 04:15 Partly Cloudy 43 6 37 3 81 81 WNW 7 11 29.97 1015 10 16 N/A
4:35 am 04:35 Partly Cloudy 43 6 37 3 81 81 WNW 8 13 29.97 1015 10 16 N/A
4:55 am 04:55 Clear 43 6 37 3 81 81 WNW 6 9 29.97 1015 10 16 N/A
5:15 am 05:15 Clear 41 5 37 3 87 87 W 7 11 29.97 1015 10 16 N/A
5:35 am 05:35 Partly Cloudy 41 5 37 3 87 87 W 7 11 30.00 1016 10 16 N/A
5:55 am 05:55 Mostly Cloudy 41 5 37 3 87 87 W 9 15 30.00 1016 10 16 N/A
6:15 am 06:15 Cloudy 43 6 37 3 81 81 W 7 11 30.00 1016 10 16 N/A
6:35 am 06:35 Cloudy 45 7 37 3 76 76 W 7 11 30.00 1016 10 16 N/A
6:55 am 06:55 Cloudy 45 7 37 3 76 76 WNW 7 11 30.03 1017 10 16 N/A
7:15 am 07:15 Cloudy 45 7 37 3 76 76 W 7 11 30.03 1017 10 16 N/A
7:35 am 07:35 Cloudy 46 8 37 3 71 71 NNW 6 9 30.03 1017 10 16 N/A
7:55 am 07:55 Partly Cloudy 48 9 37 3 66 66 NNW 6 9 30.03 1017 10 16 N/A
8:15 am 08:15 Sunny 50 10 36 2 58 58 WNW 7 11 30.00 1016 10 16 N/A
8:35 am 08:35 Sunny 52 11 36 2 54 54 NW 10 17 30.03 1017 10 16 N/A
8:55 am 08:55 Sunny 52 11 32 undefined 47 47 NNW 10 17 30.03 1017 10 16 N/A
9:15 am 09:15 Sunny 52 11 30 -1 44 44 NNW 13 20 30.03 1017 10 16 N/A
9:35 am 09:35 Sunny 52 11 32 undefined 47 47 NNW 14 22 30.03 1017 10 16 N/A
9:55 am 09:55 Sunny 54 12 32 undefined 44 44 NW 15 24 30.03 1017 10 16 N/A
10:15 am 10:15 Sunny 54 12 32 undefined 44 44 NNW 12 19 30.03 1017 10 16 N/A
10:35 am 10:35 Hazy 54 12 32 undefined 44 44 NW 13 20 30.03 1017 3 5 N/A
10:55 am 10:55 Sunny 55 13 32 undefined 41 41 N 12 19 30.03 1017 10 16 N/A
11:15 am 11:15 Sunny 55 13 32 undefined 41 41 N 10 17 30.03 1017 10 16 N/A
11:35 am 11:35 Sunny 55 13 32 undefined 41 41 N 12 19 30.00 1016 10 16 N/A
11:55 am 11:55 Partly Cloudy 55 13 32 undefined 41 41 NNW 7 11 30.00 1016 10 16 N/A
12:15 pm 12:15 Partly Cloudy 57 14 32 undefined 39 39 NW 8 13 30.00 1016 10 16 N/A
12:35 pm 12:35 Mostly Cloudy 59 15 32 undefined 36 36 WNW 10 17 29.97 1015 10 16 N/A
12:55 pm 12:55 Mostly Cloudy 59 15 32 undefined 36 36 NW 12 19 29.97 1015 10 16 N/A
1:15 pm 13:15 Partly Cloudy 59 15 32 undefined 36 36 NNW 10 17 29.97 1015 10 16 N/A
1:35 pm 13:35 Mostly Cloudy 59 15 34 1 39 39 WNW 15 24 29.97 1015 10 16 N/A
1:55 pm 13:55 Mostly Cloudy 61 16 34 1 36 36 W 8 13 29.97 1015 10 16 N/A
2:15 pm 14:15 Partly Cloudy 61 16 34 1 36 36 WNW 18 30 29.97 1015 10 16 N/A
2:35 pm 14:35 Partly Cloudy 61 16 32 undefined 34 34 N 10 17 29.94 1014 10 16 N/A
2:55 pm 14:55 Partly Cloudy 63 17 34 1 34 34 NNW 13 20 29.94 1014 10 16 N/A
3:15 pm 15:15 Mostly Cloudy 63 17 34 1 34 34 W 13 20 29.94 1014 10 16 N/A
3:35 pm 15:35 Mostly Cloudy 63 17 34 1 34 34 W 15 24 29.94 1014 10 16 N/A
3:55 pm 15:55 Mostly Cloudy 64 18 34 1 32 32 W 20 31 29.94 1014 10 16 N/A
4:15 pm 16:15 Mostly Cloudy 63 17 34 1 34 34 NW 16 26 29.91 1013 10 16 N/A
4:35 pm 16:35 Mostly Cloudy 63 17 34 1 34 34 NW 13 20 29.94 1014 10 16 N/A
4:55 pm 16:55 Mostly Cloudy 64 18 34 1 32 32 WNW 12 19 29.94 1014 10 16 N/A
5:15 pm 17:15 Mostly Cloudy 63 17 34 1 34 34 W 13 20 29.94 1014 10 16 N/A
5:35 pm 17:35 Mostly Cloudy 63 17 34 1 34 34 NW 18 30 29.94 1014 10 16 N/A
5:55 pm 17:55 Mostly Cloudy 63 17 34 1 34 34 WNW 21 33 29.94 1014 10 16 N/A
6:15 pm 18:15 Mostly Cloudy 63 17 34 1 34 34 NW 14 22 29.94 1014 10 16 N/A
6:35 pm 18:35 Mostly Cloudy 63 17 34 1 34 34 NW 9 15 29.94 1014 10 16 N/A
6:55 pm 18:55 Partly Cloudy 61 16 34 1 36 36 WNW 12 19 29.94 1014 10 16 N/A
7:15 pm 19:15 Sunny 61 16 34 1 36 36 NW 9 15 29.94 1014 10 16 N/A
7:35 pm 19:35 Partly Cloudy 59 15 34 1 39 39 NW 6 9 29.94 1014 10 16 N/A
7:55 pm 19:55 Partly Cloudy 59 15 34 1 39 39 NW 6 9 29.94 1014 10 16 N/A
8:15 pm 20:15 Partly Cloudy 55 13 34 1 44 44 NNW 5 7 29.94 1014 10 16 N/A
8:35 pm 20:35 Partly Cloudy 55 13 36 2 47 47 WNW 3 6 29.94 1014 10 16 N/A
8:55 pm 20:55 Mostly Cloudy 55 13 36 2 47 47 N N/A 29.97 1015 10 16 N/A
9:15 pm 21:15 Cloudy 54 12 37 3 54 54 NNW 3 6 29.97 1015 10 16 N/A
9:35 pm 21:35 Cloudy 54 12 37 3 54 54 N N/A 29.97 1015 10 16 N/A
9:55 pm 21:55 Partly Cloudy 54 12 36 2 51 51 N N/A 29.97 1015 10 16 N/A
10:15 pm 22:15 Clear 50 10 37 3 62 62 N N/A 29.97 1015 10 16 N/A
10:35 pm 22:35 Mostly Cloudy 50 10 43 6 76 76 N N/A 29.97 1015 10 16 N/A
10:55 pm 22:55 Mostly Cloudy 50 10 39 4 67 67 N N/A 29.97 1015 10 16 N/A
11:15 pm 23:15 Mostly Cloudy 46 8 39 4 76 76 N N/A 30.00 1016 10 16 N/A
11:35 pm 23:35 Mostly Cloudy 45 7 41 5 87 87 N N/A 30.03 1017 10 16 N/A
11:55 pm 23:55 Partly Cloudy 45 7 41 5 87 87 N N/A 30.03 1017 10 16 N/A

Powered by AerisWeather